�������l�o���
Date,Time,MP-1(��Sv/h),MP-2(��Sv/h),MP-3(��Sv/h),MP-4(��Sv/h),MP-5(��Sv/h),MP-6(��Sv/h),MP-7(��Sv/h),����,����(m/s),���J
2023/04/02,00:00,0.154,0.137,0.217,0.216,0.213,0.122,0.077,�k��,6.4,��
2023/04/02,00:10,0.154,0.137,0.218,0.214,0.214,0.121,0.078,�k��,7.1,��
2023/04/02,00:20,0.153,0.137,0.218,0.212,0.214,0.121,0.077,�k��,7.1,��
2023/04/02,00:30,0.153,0.137,0.218,0.213,0.213,0.121,0.078,�k��,6.9,��
2023/04/02,00:40,0.153,0.137,0.217,0.213,0.214,0.121,0.078,�k��,7.2,��
2023/04/02,00:50,0.154,0.137,0.217,0.212,0.213,0.121,0.077,�k��,7.4,��
2023/04/02,01:00,0.154,0.138,0.218,0.213,0.212,0.122,0.077,�k��,7.7,��
2023/04/02,01:10,0.153,0.137,0.218,0.213,0.213,0.121,0.078,�k��,7.7,��
2023/04/02,01:20,0.154,0.137,0.217,0.214,0.213,0.121,0.077,�k��,7.8,��
2023/04/02,01:30,0.153,0.138,0.218,0.214,0.213,0.121,0.077,�k�k��,8.1,��
2023/04/02,01:40,0.153,0.137,0.218,0.214,0.212,0.122,0.079,�k��,8.3,��
2023/04/02,01:50,0.153,0.137,0.217,0.214,0.212,0.121,0.078,�k��,8.7,��
2023/04/02,02:00,0.154,0.138,0.217,0.213,0.213,0.121,0.077,�k��,8.1,��
2023/04/02,02:10,0.153,0.136,0.217,0.212,0.214,0.122,0.078,�k��,7.9,��
2023/04/02,02:20,0.153,0.136,0.217,0.213,0.213,0.121,0.078,�k�k��,7.5,��
2023/04/02,02:30,0.154,0.136,0.218,0.214,0.213,0.121,0.078,�k��,7.3,��
2023/04/02,02:40,0.154,0.137,0.217,0.214,0.214,0.121,0.078,�k��,7.5,��
2023/04/02,02:50,0.154,0.137,0.217,0.214,0.213,0.121,0.078,�k�k��,7.6,��
2023/04/02,03:00,0.153,0.136,0.217,0.213,0.213,0.120,0.078,�k�k��,7.8,��
2023/04/02,03:10,0.154,0.137,0.218,0.212,0.213,0.122,0.077,�k�k��,8.2,��
2023/04/02,03:20,0.155,0.137,0.216,0.212,0.213,0.121,0.078,�k��,7.7,��
2023/04/02,03:30,0.154,0.138,0.217,0.214,0.214,0.121,0.077,�k��,7.2,��
2023/04/02,03:40,0.153,0.137,0.217,0.214,0.212,0.121,0.077,�k��,7.8,��
2023/04/02,03:50,0.153,0.136,0.218,0.213,0.213,0.121,0.077,�k��,8.2,��
2023/04/02,04:00,0.153,0.137,0.217,0.213,0.214,0.121,0.077,�k�k��,8.2,��
2023/04/02,04:10,0.154,0.136,0.217,0.213,0.212,0.120,0.077,�k��,7.8,��
2023/04/02,04:20,0.153,0.137,0.217,0.213,0.213,0.121,0.078,�k�k��,8.1,��
2023/04/02,04:30,0.153,0.137,0.217,0.213,0.214,0.121,0.077,�k��,7.8,��
2023/04/02,04:40,0.153,0.136,0.216,0.213,0.213,0.120,0.077,�k��,7.8,��
2023/04/02,04:50,0.154,0.137,0.217,0.212,0.212,0.121,0.078,�k��,8.1,��
2023/04/02,05:00,0.153,0.137,0.218,0.214,0.213,0.121,0.077,�k��,8.3,��
2023/04/02,05:10,0.154,0.138,0.217,0.213,0.212,0.120,0.077,�k��,7.9,��
2023/04/02,05:20,0.153,0.137,0.218,0.214,0.213,0.121,0.077,�k��,7.6,��
2023/04/02,05:30,0.153,0.137,0.218,0.213,0.213,0.121,0.077,�k�k��,7.5,��
2023/04/02,05:40,0.153,0.137,0.217,0.213,0.213,0.120,0.077,�k��,7.0,��
2023/04/02,05:50,0.153,0.137,0.217,0.213,0.213,0.121,0.077,�k�k��,6.2,��
2023/04/02,06:00,0.153,0.136,0.217,0.213,0.213,0.122,0.077,�k��,7.1,��
2023/04/02,06:10,0.153,0.138,0.217,0.213,0.212,0.121,0.077,�k�k��,7.7,��
2023/04/02,06:20,0.153,0.137,0.216,0.213,0.213,0.121,0.077,�k��,7.5,��
2023/04/02,06:30,0.153,0.137,0.217,0.213,0.214,0.120,0.078,�k�k��,7.1,��
2023/04/02,06:40,0.153,0.137,0.216,0.213,0.211,0.120,0.078,�k�k��,7.8,��
2023/04/02,06:50,0.154,0.137,0.218,0.213,0.214,0.121,0.078,�k�k��,6.8,��
2023/04/02,07:00,0.154,0.137,0.218,0.213,0.213,0.120,0.077,�k�k��,7.0,��
2023/04/02,07:10,0.153,0.137,0.217,0.212,0.212,0.120,0.078,�k�k��,7.8,��
2023/04/02,07:20,0.154,0.137,0.217,0.214,0.215,0.119,0.078,�k�k��,6.7,��
2023/04/02,07:30,0.153,0.137,0.217,0.212,0.212,0.121,0.076,�k�k��,6.4,��
2023/04/02,07:40,0.153,0.136,0.217,0.212,0.212,0.121,0.077,�k�k��,6.3,��
2023/04/02,07:50,0.153,0.137,0.217,0.213,0.213,0.121,0.078,�k�k��,7.0,�L
2023/04/02,08:00,0.153,0.136,0.217,0.212,0.212,0.120,0.077,�k�k��,6.2,�L
2023/04/02,08:10,0.153,0.137,0.217,0.213,0.214,0.121,0.077,�k�k��,6.8,�L
2023/04/02,08:20,0.154,0.136,0.217,0.212,0.212,0.121,0.077,�k�k��,6.8,�L
2023/04/02,08:30,0.153,0.137,0.217,0.213,0.214,0.120,0.078,�k�k��,6.8,�L
2023/04/02,08:40,0.153,0.136,0.217,0.214,0.214,0.121,0.078,�k�k��,7.5,�L
2023/04/02,08:50,0.154,0.136,0.218,0.212,0.214,0.121,0.078,�k�k��,7.0,�L
2023/04/02,09:00,0.154,0.135,0.218,0.213,0.213,0.120,0.078,�k�k��,6.6,��
2023/04/02,09:10,0.153,0.137,0.217,0.213,0.213,0.121,0.078,�k��,6.9,��
2023/04/02,09:20,0.154,0.137,0.217,0.212,0.212,0.120,0.077,�k�k��,5.6,�L
2023/04/02,09:30,0.153,0.136,0.218,0.213,0.213,0.119,0.078,�k�k��,5.6,��
2023/04/02,09:40,0.152,0.136,0.217,0.211,0.213,0.121,0.077,�k��,6.8,��
2023/04/02,09:50,0.153,0.136,0.218,0.213,0.213,0.121,0.078,�k�k��,6.2,��
2023/04/02,10:00,0.153,0.137,0.216,0.212,0.213,0.120,0.076,�k�k��,4.9,��
2023/04/02,10:10,0.153,0.137,0.218,0.211,0.213,0.121,0.076,�k�k��,6.7,��
2023/04/02,10:20,0.153,0.137,0.218,0.214,0.214,0.121,0.078,�k�k��,4.7,��
2023/04/02,10:30,0.154,0.136,0.217,0.211,0.212,0.121,0.077,�k,6.9,��
2023/04/02,10:40,0.154,0.137,0.217,0.213,0.213,0.121,0.078,�k,5.5,��
2023/04/02,10:50,0.153,0.135,0.217,0.213,0.213,0.121,0.077,�k,7.4,��
2023/04/02,11:00,0.154,0.137,0.219,0.214,0.212,0.121,0.077,�k�k��,6.9,��
2023/04/02,11:10,0.153,0.136,0.217,0.215,0.214,0.121,0.077,�k,6.3,��
2023/04/02,11:20,0.153,0.137,0.217,0.212,0.212,0.120,0.077,�k,5.6,��
2023/04/02,11:30,0.152,0.138,0.217,0.213,0.214,0.121,0.077,�k,5.5,��
2023/04/02,11:40,0.153,0.138,0.216,0.212,0.213,0.120,0.077,�k�k��,5.7,��
2023/04/02,11:50,0.154,0.136,0.216,0.213,0.214,0.121,0.077,�k,5.7,��
2023/04/02,12:00,0.152,0.137,0.217,0.213,0.213,0.120,0.078,�k,4.8,��
2023/04/02,12:10,0.153,0.136,0.216,0.214,0.213,0.120,0.077,�k�k��,5.8,��
2023/04/02,12:20,0.153,0.136,0.218,0.212,0.214,0.121,0.077,�k,6.0,��
2023/04/02,12:30,0.153,0.137,0.217,0.213,0.211,0.121,0.077,�k,5.9,��
2023/04/02,12:40,0.154,0.136,0.218,0.214,0.214,0.120,0.078,�k,6.4,��
2023/04/02,12:50,0.153,0.137,0.217,0.212,0.213,0.122,0.077,�k,5.2,��
2023/04/02,13:00,0.154,0.138,0.217,0.214,0.213,0.121,0.076,�k,6.1,��
2023/04/02,13:10,0.153,0.137,0.218,0.213,0.213,0.121,0.077,�k,6.1,��
2023/04/02,13:20,0.153,0.138,0.218,0.213,0.214,0.121,0.077,�k,5.0,��
2023/04/02,13:30,0.154,0.137,0.217,0.214,0.214,0.120,0.077,�k,5.5,��
2023/04/02,13:40,0.153,0.136,0.218,0.213,0.213,0.120,0.077,�k,4.9,��
2023/04/02,13:50,0.153,0.137,0.218,0.214,0.215,0.121,0.077,�k,5.1,��
2023/04/02,14:00,0.154,0.136,0.218,0.213,0.212,0.121,0.078,�k,5.2,��
2023/04/02,14:10,0.153,0.137,0.218,0.213,0.214,0.121,0.077,�k�k��,5.3,��
2023/04/02,14:20,0.154,0.137,0.217,0.214,0.214,0.121,0.077,�k,4.5,��
2023/04/02,14:30,0.153,0.136,0.218,0.214,0.213,0.121,0.077,�k,4.9,��
2023/04/02,14:40,0.154,0.137,0.217,0.213,0.215,0.121,0.077,�k,5.1,��
2023/04/02,14:50,0.153,0.137,0.218,0.212,0.213,0.121,0.077,�k,4.5,��
2023/04/02,15:00,0.153,0.137,0.218,0.213,0.215,0.121,0.077,�k,5.0,��
2023/04/02,15:10,0.153,0.137,0.216,0.213,0.213,0.122,0.077,�k,4.6,��
2023/04/02,15:20,0.154,0.136,0.218,0.214,0.213,0.121,0.077,�k�k��,3.9,��
2023/04/02,15:30,0.153,0.137,0.217,0.213,0.215,0.120,0.078,�k,4.4,��
2023/04/02,15:40,0.153,0.137,0.217,0.213,0.213,0.121,0.077,�k,4.9,��
2023/04/02,15:50,0.154,0.138,0.217,0.215,0.215,0.121,0.077,�k,5.0,��
2023/04/02,16:00,0.154,0.137,0.217,0.213,0.214,0.122,0.078,�k,4.3,��
2023/04/02,16:10,0.153,0.137,0.217,0.213,0.214,0.121,0.077,�k,3.7,��
2023/04/02,16:20,0.153,0.137,0.218,0.214,0.211,0.120,0.078,�k,3.7,��
2023/04/02,16:30,0.154,0.137,0.217,0.213,0.214,0.121,0.077,�k,3.1,��
2023/04/02,16:40,0.153,0.137,0.218,0.214,0.213,0.121,0.078,�k�k��,4.5,��
2023/04/02,16:50,0.153,0.137,0.218,0.214,0.215,0.121,0.078,�k,4.7,��
2023/04/02,17:00,0.153,0.137,0.218,0.213,0.212,0.121,0.077,�k,4.5,��
2023/04/02,17:10,0.153,0.137,0.217,0.213,0.213,0.120,0.077,�k,4.3,��
2023/04/02,17:20,0.153,0.137,0.219,0.214,0.214,0.120,0.077,�k�k��,4.7,��
2023/04/02,17:30,0.154,0.137,0.218,0.214,0.213,0.122,0.077,�k,3.7,��
2023/04/02,17:40,0.153,0.136,0.218,0.214,0.215,0.120,0.077,�k�k��,4.4,��
2023/04/02,17:50,0.154,0.137,0.218,0.214,0.214,0.122,0.077,�k�k��,4.7,��
2023/04/02,18:00,0.154,0.136,0.218,0.214,0.213,0.121,0.077,�k�k��,5.5,��
2023/04/02,18:10,0.153,0.137,0.219,0.214,0.214,0.122,0.077,�k�k��,5.1,��
2023/04/02,18:20,0.155,0.137,0.218,0.215,0.213,0.121,0.078,�k�k��,5.6,��
2023/04/02,18:30,0.153,0.137,0.219,0.213,0.213,0.122,0.077,�k��,6.6,��
2023/04/02,18:40,0.154,0.136,0.219,0.214,0.213,0.121,0.077,�k�k��,6.6,��
2023/04/02,18:50,0.153,0.137,0.218,0.213,0.214,0.121,0.077,�k��,7.1,��
2023/04/02,19:00,0.153,0.137,0.217,0.213,0.213,0.122,0.077,�k��,7.0,��
2023/04/02,19:10,0.153,0.137,0.218,0.213,0.214,0.121,0.078,�k��,7.2,��
2023/04/02,19:20,0.154,0.137,0.219,0.215,0.214,0.122,0.078,�k��,7.8,��
2023/04/02,19:30,0.155,0.137,0.217,0.214,0.214,0.122,0.077,�k��,7.3,��
2023/04/02,19:40,0.153,0.137,0.219,0.213,0.213,0.120,0.078,�k��,7.6,��
2023/04/02,19:50,0.155,0.137,0.219,0.213,0.215,0.122,0.077,�k��,7.5,��
2023/04/02,20:00,0.154,0.137,0.218,0.213,0.214,0.121,0.077,�k��,7.5,��
2023/04/02,20:10,0.154,0.137,0.219,0.213,0.214,0.121,0.077,�k��,7.7,��
2023/04/02,20:20,0.154,0.137,0.217,0.213,0.212,0.121,0.078,�k��,7.4,��
2023/04/02,20:30,0.153,0.137,0.218,0.213,0.213,0.121,0.077,�k��,7.6,��
2023/04/02,20:40,0.154,0.137,0.218,0.213,0.213,0.122,0.078,�k�k��,7.8,��
2023/04/02,20:50,0.154,0.137,0.219,0.213,0.214,0.121,0.077,�k��,7.5,��
2023/04/02,21:00,0.154,0.137,0.217,0.213,0.214,0.121,0.078,�k��,7.1,��
2023/04/02,21:10,0.153,0.138,0.218,0.213,0.214,0.121,0.077,�k�k��,7.2,��
2023/04/02,21:20,0.153,0.136,0.217,0.213,0.214,0.121,0.077,�k��,6.5,��
2023/04/02,21:30,0.155,0.137,0.216,0.213,0.213,0.121,0.077,�k�k��,6.6,��
2023/04/02,21:40,0.153,0.137,0.217,0.214,0.212,0.121,0.077,�k��,6.4,��
2023/04/02,21:50,0.153,0.138,0.217,0.213,0.213,0.121,0.078,�k��,6.5,��
2023/04/02,22:00,0.153,0.137,0.218,0.214,0.213,0.121,0.077,�k�k��,6.6,��
2023/04/02,22:10,0.153,0.138,0.217,0.213,0.212,0.120,0.077,�k�k��,6.6,��
2023/04/02,22:20,0.154,0.138,0.218,0.214,0.213,0.121,0.077,�k�k��,6.9,��
2023/04/02,22:30,0.154,0.136,0.218,0.213,0.214,0.122,0.077,�k�k��,6.8,��
2023/04/02,22:40,0.152,0.137,0.218,0.213,0.212,0.121,0.077,�k�k��,6.9,��
2023/04/02,22:50,0.153,0.138,0.217,0.214,0.213,0.122,0.078,�k�k��,7.3,��
2023/04/02,23:00,0.153,0.137,0.217,0.214,0.213,0.120,0.077,�k�k��,6.9,��
2023/04/02,23:10,0.154,0.137,0.219,0.214,0.214,0.121,0.078,�k�k��,6.9,��
2023/04/02,23:20,0.153,0.136,0.218,0.215,0.213,0.120,0.077,�k�k��,6.9,��
2023/04/02,23:30,0.154,0.137,0.217,0.213,0.213,0.122,0.077,�k�k��,7.3,��
2023/04/02,23:40,0.153,0.138,0.219,0.213,0.214,0.121,0.078,�k�k��,7.1,��
2023/04/02,23:50,0.153,0.137,0.219,0.213,0.214,0.121,0.078,�k�k��,7.3,��
